Location: Lenomiya Observatory
(32.9017°N, 111.7482°W)
Time: 03:21:36
(UTC-07:00)

ISS - Visible Passes

Search period start: 17 October 2018 00:00
Search period end: 27 October 2018 00:00
Orbit: 403 x 408 km, 51.6° (Epoch: 17 October)

Date Brightness Start Highest point End Pass type
(mag) Time Alt. Az. Time Alt. Az. Time Alt. Az.
22 Oct 0.0 06:03:08 10° SE 06:03:21 10° SE 06:03:35 10° ESE visible
24 Oct -1.7 05:52:39 10° SSW 05:55:32 29° SE 05:58:24 10° ENE visible
25 Oct -0.8 05:01:57 10° SSE 05:03:39 14° SE 05:05:23 10° E visible
26 Oct -3.9 05:44:32 10° SW 05:47:47 87° NW 05:51:04 10° NE visible
